Location: York
(31.8935°S, 116.7682°E)
Time: 02:13:35
(UTC+08:00)

Courier 1B Rocket - Visible Passes

Search period start: 19 June 2021 00:00
Search period end: 29 June 2021 00:00
Orbit: 920 x 1202 km, 28.2° (Epoch: 17 June)

Date Brightness Start Highest point End Pass type
(mag) Time Alt. Az. Time Alt. Az. Time Alt. Az.
19 Jun 7.7 04:19:54 10° NNE 04:21:19 11° NE 04:22:45 10° NE visible
19 Jun 6.8 06:07:51 10° NW 06:14:03 33° NNE 06:20:38 10° E visible
20 Jun 7.0 05:07:44 10° NNW 05:13:06 24° NNE 05:18:46 10° ENE visible
21 Jun 7.2 04:10:15 15° N 04:12:14 17° NNE 04:16:25 10° ENE visible
21 Jun 6.3 05:58:36 10° NW 06:05:04 42° NNE 06:12:00 10° E visible
22 Jun 6.5 05:00:06 18° NNW 05:04:05 33° NNE 05:10:22 10° E visible
23 Jun 6.8 04:03:23 24° NNE 04:03:23 24° NNE 04:08:32 10° ENE visible
23 Jun 5.9 05:49:48 11° WNW 05:56:09 52° NNE 06:03:13 10° E visible
24 Jun 6.0 04:52:59 33° NNW 04:55:08 42° NNE 05:01:44 10° E visible
24 Jun 5.6 06:41:36 10° WNW 06:48:25 65° N 06:55:48 10° E visible
25 Jun 6.7 03:56:04 28° NE 03:56:04 28° NE 04:00:11 10° E visible
25 Jun 5.5 05:42:28 19° WNW 05:47:18 59° N 05:54:24 10° E visible
26 Jun 5.5 04:45:28 48° N 04:46:17 51° NNE 04:53:00 10° E visible
26 Jun 5.5 06:32:54 10° W 06:39:38 67° N 06:46:54 10° E visible
27 Jun 6.8 03:48:26 26° ENE 03:48:26 26° ENE 03:51:36 10° E visible
27 Jun 5.3 05:34:48 27° WNW 05:38:31 64° N 05:45:33 10° E visible
28 Jun 5.3 04:37:42 58° NNE 04:37:42 58° NNE 04:44:13 10° E visible
28 Jun 5.5 06:24:13 10° W 06:30:51 63° N 06:37:58 10° ENE visible
